Location: Mountain View
(37.3861°N, 122.0839°W)
Time: 07:30:33
(UTC-08:00)

BlueWalker 3 - Pass Details

Date: 11 December 2022
Orbit: 499 x 517 km, 53.2° (Epoch: 27 January)

Event Time Altitude Azimuth Distance (km) Brightness Sun altitude
Rises 17:51:53 0° 315° (NW) 2,629 5.9 -11.9°
Reaches altitude 10° 17:54:07 10° 319° (NW) 1,735 4.9 -12.3°
Maximum altitude 17:58:00 59° 40° (NE) 592 2.0 -13.0°
Enters shadow 18:01:30 12° 119° (ESE) 1,586 4.1 -13.7°
